, AK

(GMT )
Tin City

Weather History for PATC - October, 2013

Change the Weather History Date:

Wednesday, October 30, 2013

  Actual Average Record
Temperature  
Mean Temperature 28 °F -  
Max Temperature 29 °F 26 °F 43 °F (2002)
Min Temperature 27 °F 20 °F 12 °F (2001)
Degree Days  
Heating Degree Days 37    
Moisture  
Dew Point 23 °F    
Average Humidity 80    
Maximum Humidity 86    
Minimum Humidity 75    
Precipitation  
Precipitation 0.00 in - - ()
Sea Level Pressure  
Sea Level Pressure 29.49 in    
Wind  
Wind Speed 14 mph (NNE)    
Max Wind Speed 21 mph    
Max Gust Speed -    
Visibility 10 miles    
Events Snow    
Averages and records for this station are not official NWS values.
T = Trace of Precipitation, MM = Missing Value Source: NWS Daily Summary

Daily Weather History Graph

Daily Weather History Graph

Search for Another Location

Airport or City:

Trip Planner

Search our weather history database for the weather conditions in past years. The results will help you decide how hot, cold, wet, or windy it might be!

Date:

Astronomy

Oct. 30, 2013 Rise Set
Actual Time 10:58 AM AKDT 6:50 PM AKDT
Civil Twilight 10:02 AM AKDT 7:46 PM AKDT
Nautical Twilight 9:02 AM AKDT 8:46 PM AKDT
Astronomical Twilight 8:03 AM AKDT 9:44 PM AKDT
Moon 5:34 AM AKDT (10/30) 5:57 PM AKDT (10/30)
Length of Visible Light 9h 44m
Length of Day
7h 51m
Waning Crescent, 16% of the Moon is Illuminated
Oct 30
Waning Crescent
Nov 3
New
Nov 9
First Quarter
Nov 17
Full
Nov 25
Last Quarter

Hourly Weather History & Observations

Time (AKDT) Temp. Windchill Dew Point Humidity Pressure Visibility Wind Dir Wind Speed Gust Speed Precip Events Conditions
12:55 AM 28.6 °F 18.2 °F 22.8 °F 79% 29.50 in 10.0 mi NNE 12.7 mph - N/A   Overcast
1:55 AM 28.6 °F 18.7 °F 22.8 °F 79% 29.50 in 10.0 mi NNE 11.5 mph - N/A   Overcast
2:55 AM 28.9 °F 19.2 °F 22.8 °F 78% 29.49 in 10.0 mi NNE 11.5 mph - N/A   Overcast
3:55 AM 28.9 °F 19.2 °F 23.7 °F 81% 29.49 in 10.0 mi NNE 11.5 mph - N/A   Overcast
4:55 AM 28.6 °F 17.7 °F 22.1 °F 77% 29.47 in 10.0 mi NNE 13.8 mph - N/A   Overcast
5:55 AM 27.9 °F 16.3 °F 21.0 °F 75% 29.47 in 10.0 mi NE 15.0 mph - N/A   Mostly Cloudy
6:55 AM 28.0 °F 17.0 °F 22.1 °F 78% 29.47 in 10.0 mi NNE 13.8 mph - N/A   Overcast
7:55 AM 27.3 °F 16.1 °F 20.7 °F 76% 29.47 in 10.0 mi NE 13.8 mph - N/A   Overcast
8:55 AM 27.3 °F 17.1 °F 21.7 °F 80% 29.46 in 10.0 mi NNE 11.5 mph - N/A   Overcast
9:55 AM 27.5 °F 15.4 °F 21.4 °F 78% 29.46 in 10.0 mi NNE 16.1 mph - N/A   Overcast
10:55 AM 27.7 °F 15.2 °F 21.7 °F 78% 29.46 in 10.0 mi NNE 17.3 mph - N/A   Overcast
11:55 AM 27.9 °F 15.9 °F 22.3 °F 80% 29.47 in 10.0 mi NNE 16.1 mph - N/A   Overcast
12:55 PM 28.0 °F 16.1 °F 21.7 °F 77% 29.47 in 10.0 mi NNE 16.1 mph - N/A   Overcast
1:55 PM 28.4 °F 16.2 °F 23.0 °F 80% 29.47 in 10.0 mi North 17.3 mph - N/A   Overcast
2:55 PM 28.4 °F 16.2 °F 22.6 °F 79% 29.48 in 10.0 mi North 17.3 mph - N/A   Overcast
3:55 PM 28.4 °F 16.6 °F 22.5 °F 78% 29.48 in 10.0 mi NNE 16.1 mph - N/A   Overcast
4:55 PM 28.4 °F 15.8 °F 22.3 °F 78% 29.48 in 10.0 mi NNE 18.4 mph - N/A   Overcast
5:45 PM 28.4 °F 17.0 °F 24.8 °F 86% 29.49 in 10.0 mi NNE 15.0 mph - N/A Snow Light Snow
5:55 PM 28.8 °F 16.6 °F 24.6 °F 84% 29.48 in 10.0 mi NNE 17.3 mph - N/A Snow Light Snow Showers
6:25 PM 28.4 °F 16.2 °F 23.0 °F 80% 29.49 in 10.0 mi NNE 17.3 mph - N/A   Overcast
6:55 PM 28.9 °F 16.9 °F 24.3 °F 83% 29.49 in 10.0 mi NNE 17.3 mph - N/A   Overcast
7:55 PM 28.9 °F 15.8 °F 24.1 °F 82% 29.50 in 10.0 mi NNE 20.7 mph - N/A   Overcast
8:55 PM 29.1 °F 16.7 °F 23.7 °F 80% 29.52 in 10.0 mi NNE 18.4 mph - N/A   Overcast
9:55 PM 28.9 °F 15.8 °F 24.1 °F 82% 29.52 in 10.0 mi NNE 20.7 mph - N/A   Overcast
10:55 PM 28.9 °F 16.9 °F 24.1 °F 82% 29.54 in 10.0 mi NNE 17.3 mph - N/A   Overcast
11:55 PM 28.8 °F 18.4 °F 24.8 °F 85% 29.56 in 10.0 mi NNE 12.7 mph - N/A   Overcast